Fairfield - Fairfield Municipal Airport
Sunday 2:15 PM
Temperature73° (73°/52°)
Dew Point52°
Relative Humidity47
%
Visibility10
mi
Pressure1025.1
mb
Wind DirectionESE
110°
Wind Speed10
mph
Precipitation Today0.00"

Last 30 Observations

Time PresWx Temp DP Feels RH% Vsby Pressure Ceiling Direction Speed 1h Precip
2:15 PM 73° 52° 47
%
10
mi
1025.1
mb
ESE
110°
10
mph
0.00"
1:55 PM 73° 50° 44
%
10
mi
1025.4
mb
S
170°
7
mph
0.00"
1:35 PM 73° 48° 41
%
10
mi
1025.7
mb
Variable 5
mph
0.00"
1:15 PM 73° 52° 47
%
10
mi
1025.7
mb
ESE
120°
9
mph
0.00"
12:55 PM 72° 48° 43
%
10
mi
1026.1
mb
Variable 6
mph
0.00"
12:35 PM 73° 50° 44
%
10
mi
1026.4
mb
S
170°
6
mph
0.00"
12:15 PM 72° 48° 43
%
10
mi
1026.4
mb
Calm 0.00"
11:55 AM 72° 50° 46
%
10
mi
1026.4
mb
Variable 6
mph
0.00"
11:35 AM 72° 48° 43
%
10
mi
1026.4
mb
Variable 6
mph
0.00"
11:15 AM 72° 50° 46
%
10
mi
1026.8
mb
SE
140°
7
mph
0.00"
10:55 AM 70° 50° 49
%
10
mi
1027.1
mb
Variable 5
mph
0.00"
10:35 AM 68° 48° 49
%
10
mi
1026.8
mb
ESE
120°
6
mph
0.00"
10:15 AM 70° 50° 49
%
10
mi
1027.1
mb
0.00"
9:55 AM 68° 48° 49
%
10
mi
1027.1
mb
SE
140°
6
mph
0.00"
9:35 AM 68° 52° 56
%
10
mi
1027.1
mb
Variable 6
mph
0.00"
9:15 AM 66° 50° 56
%
10
mi
1027.4
mb
ESE
120°
6
mph
0.00"
8:55 AM 64° 52° 64
%
10
mi
1027.1
mb
SSE
150°
6
mph
0.00"
8:35 AM 64° 54° 68
%
10
mi
1027.1
mb
SE
130°
5
mph
0.00"
8:15 AM 63° 54° 72
%
10
mi
1027.1
mb
12,000
ft
ESE
120°
6
mph
0.00"
7:55 AM 61° 54° 77
%
10
mi
1026.8
mb
12,000
ft
E
100°
7
mph
0.00"
7:35 AM 59° 55° 88
%
10
mi
1026.4
mb
12,000
ft
E
80°
6
mph
0.00"
7:15 AM 57° 54° 88
%
10
mi
1026.1
mb
11,000
ft
E
90°
6
mph
0.00"
6:55 AM 55° 54° 94
%
10
mi
1025.7
mb
E
90°
7
mph
0.00"
6:35 AM 54° 52° 94
%
10
mi
1025.4
mb
E
80°
7
mph
0.00"
6:15 AM 52° 50° 94
%
10
mi
1025.4
mb
E
80°
6
mph
0.00"
5:55 AM 52° 50° 94
%
10
mi
1025.1
mb
E
80°
5
mph
0.00"
5:35 AM 52° 50° 94
%
10
mi
1025.1
mb
E
80°
6
mph
0.00"
5:15 AM 52° 50° 94
%
10
mi
1025.1
mb
ENE
70°
7
mph
0.00"
4:55 AM 52° 52° 100
%
10
mi
1025.1
mb
ENE
70°
5
mph
0.00"
4:35 AM 52° 52° 100
%
1025.1
mb
ENE
60°
5
mph
0.00"